CZ-5 R/B (44911 NORAD) Tracking and Keplerian Element Data

This shows tracking and keplerian element data for the satellite.

Feedback or suggestion? Click here.




ElementValue
Catalog44911
NameCZ-5 R/B
Epoch Orbit25
Epoch Day21.75143923
Epoch Year2020
RAAN303.7532
Inclination17.6622
Eccentricity0.8467046
Argument of Perigee201.8488
Mean Anonmoly67.945
Mean Motion0.96014349
Decay Rate-4.19E-06
L11 44911U 19097B 20021.75143923 -.00000419 00000-0 12189-2 0 9992
L22 44911 17.6622 303.7532 8467046 201.8488 67.9450 0.96014349 258



Live tracking and technical data element details for CZ-5 R/B (NORAD 44911). CZ-5 R/B can be tracked NOW for your location showing map with azimuth and elevation plus other details from your city location.







IsCatalogInMostPopularTable: catalog: 44911, numindb: 156
Update: records affected: 1



GetName: 44911 CZ-5 R/B

Hit Count: updated at: Sat, 10 Jun 2023 23:32:12 GMT